Location: Treviso
(45.6669°N, 12.2430°E)
Time: 07:25:32
(UTC+02:00)

ISS - Pass Details

Date: 26 May 2018
Orbit: 402 x 407 km, 51.6° (Epoch: 24 May)

Event Time Altitude Azimuth Distance (km) Brightness Sun altitude
Rises 22:43:28 0° 280° (W) 2,320 0.7 -15.5°
Reaches altitude 10° 22:45:44 10° 293° (WNW) 1,460 -0.1 -15.7°
Maximum altitude 22:48:37 28° 355° (N) 794 -1.7 -16.0°
Drops below altitude 10° 22:51:30 10° 57° (ENE) 1,459 -1.0 -16.3°
Sets 22:53:46 0° 69° (ENE) 2,319 -0.1 -16.5°
Enters shadow 22:53:47 - 69° (ENE) 2,324 -0.1 -16.5°
